Tracking 17145 objects as of 22-May-2015
HD Live streaming from Space Station

COSMOS 847 DEB


COSMOS 847 DEB is no longer on orbit
COSMOS 847 DEB is classified as:


NORAD ID: 9376
Int'l Code: 1976-079D
Perigee: N/A
Apogee: N/A
Inclination: N/A
Period: N/A
Semi major axis: N/A
RCS: N/A
Launch date: August 4, 1976
Source: Commonwealth of Independent States (former USSR) (CIS)
Decay date: 1976-08-23

Note: This is SATELLITE DEBRIS
Your satellite tracking list
Your tracking list is empty





NASA's NSSDC Master Catalog

Two Line Element Set (TLE):
1 09376U 76079  D 76236.30303069  .06667815 +00000-0 +00000-0 0  9991
2 09376 062.7961 033.0306 0012266 070.3506 289.8935 16.46780777003034

Source of the keplerian elements: AFSPC

N2YO: 273